Flag Weather past 2 weeks in Cloppenburg, Lower Saxony, Germany

Now
41 °F

Quite cool.


Feels Like: 38 °F
Forecast: 43 / 52 °F
Wind: 5 mph from Southeast

Location: Meppen-Mil

Current Time: Nov 22, 2014 at 11:36:41 AM

Latest Report: Nov 22, 2014 at 10:20 AM


Visibility: 4 mi

Pressure: 30.09 "Hg

Humidity: 87%

Dew point: 37 °F

Location of CloppenburgLocation

Historic Weather in Cloppenburg — Graph

°F

Cloppenburg temperature yesterday

Maximum temperature yesterday: 45 °F (at 1:20 PM)
Minimum temperature yesterday: 28 °F (at 3:20 AM)
Average temperature yesterday: 37 °F

Past Weeks' High & Low Weather Summary

 TemperatureHumidityPressure
High55 °F (Nov 8, 2:20 PM)100% (Nov 9, 11:20 PM)30.36 "Hg (Nov 9, 11:20 PM)
Low28 °F (Nov 21, 3:20 AM)62% (Nov 7, 3:20 PM)29.47 "Hg (Nov 16, 1:20 PM)
Average46 °F87%29.84 "Hg
* Reported Nov 7 10:20 AM — Nov 22 10:20 AM, Cloppenburg, Weather by CustomWeather, © 2014

Note: Actual official high and low records may vary slightly from our data, if they occured in-between our weather recording intervals... More about our weather records

Advertising

Cloppenburg weather history for previous 24 hours

 ConditionsComfort  
Time TempWeatherWind HumidityBarometerVisibility
10:20 AM
Nov 22
41 °FQuite cool.5 mph87%30.09 "Hg4 mi
9:20 AM41 °FQuite cool.6 mph81%30.09 "Hg4 mi
8:20 AM39 °FChilly.5 mph87%30.09 "Hg4 mi
7:20 AM39 °FChilly.5 mph87%30.09 "Hg4 mi
6:20 AM39 °FChilly.6 mph87%30.09 "Hg4 mi
5:20 AM39 °FChilly.3 mph87%30.09 "Hg4 mi
4:20 AM39 °FChilly.5 mph87%30.12 "Hg4 mi
3:20 AM39 °FChilly.5 mph87%30.12 "Hg4 mi
2:20 AM37 °FChilly.3 mph93%30.12 "Hg4 mi
1:20 AM39 °FChilly.5 mph87%30.15 "Hg4 mi
12:20 AM39 °FChilly.5 mph87%30.15 "Hg5 mi
11:20 PM
Nov 21
41 °FQuite cool.6 mph81%30.15 "Hg6 mi
10:20 PM41 °FQuite cool.6 mph81%30.18 "Hg6 mi
9:20 PM41 °FQuite cool.6 mph81%30.18 "Hg6 mi
8:20 PM39 °FChilly.5 mph87%30.18 "Hg6 mi
7:20 PM39 °FChilly.5 mph87%30.18 "Hg5 mi
6:20 PM41 °FQuite cool.5 mph81%30.18 "Hg6 mi
5:20 PM41 °FQuite cool.5 mph87%30.18 "Hg6 mi
4:20 PM43 °FQuite cool.5 mph81%30.18 "Hg6 mi
3:20 PM45 °FQuite cool.6 mph76%30.21 "Hg6 mi
2:20 PM45 °FQuite cool.7 mph76%30.21 "Hg6 mi
1:20 PM45 °FQuite cool.6 mph76%30.24 "Hg6 mi
12:20 PM43 °FQuite cool.5 mph81%30.24 "Hg5 mi
11:20 AM41 °FPassing clouds.3 mph93%30.27 "Hg4 mi
Weather by CustomWeather, © 2014

See weather overviewHow to use our weather pages